User: anonymous   Login
Location: Unspecified
(0.0000°N, 0.0000°E)
Time: 00:20:22
(UTC+00:00)
Language:

Quakesat - Orbit

View from above orbital plane
View from above orbital plane
View from above satellite
View from above satellite

Ground track
Ground track

The orbit data is extracted from the following two-line orbital elements,

1 27845U 03031F   17231.06454114 +.00000080 +00000-0 +55745-4 0  9990
2 27845 098.6944 240.2863 0008796 180.3931 179.7241 14.22040771733101
Epoch (UTC): 19 August 2017 01:32:56
Eccentricity: 0.0008796
inclination: 98.6944°
perigee height: 812 km
apogee height: 825 km
right ascension of ascending node: 240.2863°
argument of perigee: 180.3931°
revolutions per day: 14.22040771
mean anomaly at epoch: 179.7241°
orbit number at epoch: 73310

The dashed part of the orbit path shows where the satellite is in the earth's shadow,  

DLR